Tracking 19827 objects as of 21-Aug-2019
HD Live streaming from Space Station
objects crossing your sky now

COSMOS 2251 DEB

Track COSMOS 2251 DEB now!
10-day predictions


NORAD ID: 33822
Int'l Code: 1993-036BP
Perigee: 767.1 km
Apogee: 1,025.4 km
Inclination: 74.1 °
Period: 102.8 minutes
Semi major axis: 7267 km
RCS: 0.037 m2 (small)
Launch date: June 16, 1993
Source: Commonwealth of Independent States (former USSR) (CIS)
Launch site: PLESETSK MISSILE AND SPACE COMPLEX (PKMTR)

Note: This is SATELLITE DEBRIS
aabbcc
Your satellite tracking list
Your tracking list is empty




NASA's NSSDC Master Catalog

Two Line Element Set (TLE):
1 33822U 93036BP  19232.49147160  .00000283  00000-0  17664-3 0  9998
2 33822  74.0778 248.1653 0177735 135.1570 343.4927 14.01345780536766
Source of the keplerian elements: AFSPC